Weather History for Springfield, IL

Change the Weather History Date:

Tuesday, September 3, 2013

  Actual Average Record
Temperature  
Mean Temperature 67 °F 72 °F  
Max Temperature 80 °F 83 °F 100 °F (2011)
Min Temperature 53 °F 60 °F 40 °F (1952)
Degree Days  
Heating Degree Days 0 0  
Month to date heating degree days 0 0  
Since 1 July heating degree days 11 5  
Cooling Degree Days 2 7  
Month to date cooling degree days 21 21  
Year to date cooling degree days 961 991  
Growing Degree Days 16 (Base 50)    
Moisture  
Dew Point 57 °F    
Average Humidity 73    
Maximum Humidity 100    
Minimum Humidity 45    
Precipitation  
Precipitation 0.00 in 0.10 in 3.71 in (1926)
Month to date precipitation 0.00 0.29  
Year to date precipitation 30.67 25.94  
Snow  
Snow 0.00 in 0.00 in 0.00 in ()
Month to date snowfall 0.0 0.0  
Since 1 July snowfall 0.0 0.0  
Since 1 September snowfall 0.0 0.0  
Snow Depth 0.00 in    
Sea Level Pressure  
Sea Level Pressure 30.06 in    
Wind  
Wind Speed 2 mph (North)    
Max Wind Speed 8 mph    
Max Gust Speed 12 mph    
Visibility 9 miles    
Events      
T = Trace of Precipitation, MM = Missing Value Source: NWS Daily Summary

Daily Weather History Graph

Daily Weather History Graph

Search for Another Location

Airport:

Trip Planner

Search our weather history database for the weather conditions in past years. The results will help you decide how hot, cold, wet, or windy it might be!

Date:

Astronomy

Sep. 03, 2013 Rise Set
Actual Time 6:28 AM CDT 7:26 PM CDT
Civil Twilight 6:01 AM CDT 7:53 PM CDT
Nautical Twilight 5:28 AM CDT 8:26 PM CDT
Astronomical Twilight 4:54 AM CDT 9:00 PM CDT
Moon 4:42 AM CDT (9/3) 6:13 PM CDT (9/3)
Length of Visible Light 13h 52m
Length of Day
12h 57m
Waning Crescent, 3% of the Moon is Illuminated
Sep 3
Waning Crescent
Sep 5
New
Sep 12
First Quarter
Sep 19
Full
Sep 26
Last Quarter

Hourly Weather History & Observations

Time (CDT) Temp. Dew Point Humidity Pressure Visibility Wind Dir Wind Speed Gust Speed Precip Events Conditions
12:52 AM 60.1 °F 55.0 °F 83% 29.98 in 10.0 mi North 5.8 mph - N/A   Clear
1:52 AM 59.0 °F 55.0 °F 87% 29.99 in 10.0 mi North 8.1 mph - N/A   Clear
2:52 AM 57.9 °F 55.0 °F 90% 30.01 in 10.0 mi North 3.5 mph - N/A   Clear
3:52 AM 55.9 °F 53.1 °F 90% 30.01 in 10.0 mi Calm Calm - N/A   Clear
4:52 AM 54.0 °F 54.0 °F 100% 30.03 in 10.0 mi Calm Calm - N/A   Clear
5:52 AM 54.0 °F 53.1 °F 97% 30.05 in 10.0 mi NNE 4.6 mph - N/A   Clear
6:48 AM 55.4 °F 55.4 °F 100% 30.07 in 10.0 mi NNE 4.6 mph - N/A   Mostly Cloudy
6:49 AM 55.9 °F 55.0 °F 97% 30.07 in 10.0 mi NNE 4.6 mph - N/A   Mostly Cloudy
7:07 AM 57.2 °F 55.4 °F 94% 30.08 in 9.0 mi NNE 4.6 mph - N/A   Overcast
7:15 AM 57.2 °F 55.4 °F 94% 30.08 in 1.0 mi Calm Calm - N/A   Overcast
7:37 AM 57.2 °F 57.2 °F 100% 30.09 in 5.0 mi Calm Calm - N/A   Overcast
7:52 AM 59.0 °F 57.9 °F 96% 30.09 in 8.0 mi Calm Calm - N/A   Mostly Cloudy
8:52 AM 64.9 °F 59.0 °F 81% 30.09 in 10.0 mi ESE 4.6 mph - N/A   Clear
9:52 AM 70.0 °F 57.9 °F 65% 30.10 in 10.0 mi NE 3.5 mph - N/A   Clear
10:44 AM 71.6 °F 57.2 °F 60% 30.11 in 10.0 mi Calm Calm - N/A   Mostly Cloudy
10:52 AM 73.9 °F 57.9 °F 57% 30.10 in 10.0 mi Calm Calm - N/A   Scattered Clouds
11:52 AM 73.9 °F 57.0 °F 55% 30.09 in 10.0 mi Calm Calm - N/A   Scattered Clouds
12:52 PM 75.9 °F 57.0 °F 52% 30.09 in 10.0 mi Calm Calm - N/A   Scattered Clouds
1:52 PM 77.0 °F 55.9 °F 48% 30.07 in 10.0 mi West 3.5 mph - N/A   Partly Cloudy
2:52 PM 78.1 °F 57.0 °F 48% 30.06 in 10.0 mi Calm Calm - N/A   Partly Cloudy
3:52 PM 79.0 °F 55.9 °F 45% 30.04 in 10.0 mi Calm Calm - N/A   Clear
4:52 PM 79.0 °F 57.0 °F 47% 30.03 in 10.0 mi WSW 3.5 mph - N/A   Clear
5:52 PM 75.9 °F 59.0 °F 56% 30.03 in 10.0 mi West 3.5 mph - N/A   Clear
6:52 PM 73.0 °F 61.0 °F 66% 30.03 in 10.0 mi West 3.5 mph - N/A   Clear
7:52 PM 64.9 °F 60.1 °F 84% 30.04 in 10.0 mi Calm Calm - N/A   Clear
8:52 PM 63.0 °F 60.1 °F 90% 30.05 in 10.0 mi Calm Calm - N/A   Clear
9:52 PM 64.0 °F 59.0 °F 84% 30.06 in 10.0 mi Calm Calm - N/A   Clear
10:52 PM 61.0 °F 57.0 °F 87% 30.06 in 10.0 mi Calm Calm - N/A   Clear
11:52 PM 57.9 °F 55.0 °F 90% 30.07 in 10.0 mi Calm Calm - N/A   Clear